THOR AGENA B R/B, 1807

Orbit data source: Space-Track

THOR AGENA B R/B, 1807 is space debris in LEO originally from a launch on Mon, 29 Nov 1965 UTC launched from the Air Force Western Test Range (AFWTR). Debris objects in space refer to the collection of defunct objects orbiting the Earth. Examples of debris include non-operational satellites, rocket bodies, and fragments generated from explosions, collisions, or faulty payload assembly.

Loading next visibility...
Identifier
1807, 1965-098C
Orbit
LEO
Country
Flag of USUS
Related business
Manufacturer
LMSC
Mission
Spacecraft
Bus & Motor
AGENA B, Unknown motor
Mass
600 kg wet, 600 kg dry
Launch date (UTC)
1965-11-29 (60 years ago)
Launch vehicle
Unknown
Launch site
Air Force Western Test Range (AFWTR)
Object type
Payload
Rocket body
Debris
Shape & HBR
Unknown
Radar Cross Section
Large (>1 m²)

Expand to show TLE details & history
Last TLE update: 12 hours ago

TLE from 12 hours ago
0 THOR AGENA B R/B
1 01807U 65098C   25287.31459327  .00000724  00000-0  23520-3 0  9990
2 01807  79.8326 249.7762 1332448 169.4855 193.7328 12.27685601643120
Epoch: 2025-10-14T07:33Z
TLE epoch observation values (Epoch: 2025-10-14T07:33:00.858Z)
Latitude
-0.00004°
Longitude
113.41782°
Altitude
2,596.103 km
Speed
6.216 km/s
True Right ascension
16h 39m 06s
True Declination
0° 00' 00"
Sunlit
Object was in daylight at epoch
Visualization orbit readout
Latitude
Unknown
Longitude
Unknown
Altitude
Unknown
Speed
Unknown
Apparent Right ascension
Unknown
Apparent Declination
Unknown
Sunlit
N/A
Visualization observer readout
Local Sidereal Time
14:09:35
Azimuth
Unknown
Elevation
Unknown
Doppler factor
Unknown
Orbital elements
Apogee altitude
2,613.934 km
Perigee altitude
499.392 km
Semi-major axis
7,934.8 km
Eccentricity
0.13324
Inclination
79.8326°
RAAN
249.7762°
Arg. of periapsis
169.4855°
True anomaly
190.61655°
Mean anomaly
193.7328°
Eccentric anomaly
192.12875°
Mean motion
3.07071 °/min
Orbital period
117.24 mins
BSTAR
0.0002352
Loading maneuver chart data...
Computing Atmospheric mass density...
Loading historical data...
Loading historical data...
Loading historical data...
Loading historical data...
Loading historical data...
Loading historical data...
Loading historical data...

Documentation

Showing up to 5 results
|